| time (UTC) | temp C | wind direction | speed KPH | gust KPH | rain 1hr cm | rain 24hr cm | rain mn cm | humidity % | barometer mb |
| 20260504081531 | 10 | 41 | 19.3 | 30.6 | 0.00 | 0.00 | 0.00 | 48 | 1007.7 |
| 20260504044557 | 13 | 34 | 12.9 | 17.7 | 0.00 | 0.18 | 0.00 | 38 | 1001.5 |
| 20260504043103 | 13 | 30 | 12.9 | 17.7 | 0.00 | 0.18 | 0.00 | 36 | 1001.2 |
| 20260504041557 | 14 | 28 | 12.9 | 19.3 | 0.00 | 0.18 | 0.00 | 35 | 1001.1 |
| 20260504040131 | 15 | 22 | 16.1 | 22.5 | 0.00 | 0.18 | 0.00 | 33 | 1000.8 |
| 20260504034601 | 14 | 38 | 12.9 | 19.3 | 0.00 | 0.18 | 0.00 | 32 | 1000.3 |
| 20260504033056 | 15 | 42 | 12.9 | 24.1 | 0.00 | 0.18 | 0.00 | 29 | 1000.1 |
| 20260504031612 | 15 | 33 | 11.3 | 17.7 | 0.00 | 0.18 | 0.00 | 27 | 999.8 |
| 20260504030053 | 16 | 21 | 0.0 | 6.4 | 0.00 | 0.18 | 0.00 | 25 | 999.3 |
| 20260504024552 | 17 | 21 | 6.4 | 12.9 | 0.00 | 0.18 | 0.00 | 24 | 999.3 |
| 20260504023053 | 17 | 17 | 6.4 | 9.7 | 0.00 | 0.18 | 0.00 | 23 | 999.3 |
| 20260504021553 | 19 | 5 | 9.7 | 16.1 | 0.00 | 0.18 | 0.00 | 21 | 999.4 |
| 20260504020107 | 20 | 13 | 12.9 | 20.9 | 0.00 | 0.18 | 0.00 | 20 | 999.3 |
| 20260504014551 | 21 | 13 | 11.3 | 19.3 | 0.00 | 0.18 | 0.00 | 20 | 999.3 |
| 20260504013050 | 21 | 360 | 17.7 | 27.4 | 0.00 | 0.18 | 0.00 | 19 | 999.2 |
| 20260504011549 | 22 | 5 | 17.7 | 25.7 | 0.00 | 0.18 | 0.00 | 17 | 999.3 |
| 20260504010053 | 22 | 360 | 20.9 | 25.7 | 0.00 | 0.18 | 0.00 | 17 | 999.4 |
| 20260504004547 | 23 | 15 | 17.7 | 27.4 | 0.00 | 0.18 | 0.00 | 16 | 999.5 |
| 20260504003045 | 23 | 329 | 14.5 | 27.4 | 0.00 | 0.18 | 0.00 | 15 | 999.7 |
| 20260504001551 | 23 | 319 | 17.7 | 33.8 | 0.00 | 0.18 | 0.00 | 15 | 999.9 |
| 20260504000043 | 23 | 333 | 17.7 | 27.4 | 0.00 | 0.18 | 0.00 | 15 | 1000.0 |
| 20260503234601 | 23 | 284 | 24.1 | 35.4 | 0.00 | 0.18 | 0.00 | 15 | 1000.0 |
| 20260503233047 | 23 | 360 | 19.3 | 25.7 | 0.00 | 0.18 | 0.00 | 16 | 1000.0 |
| 20260503231540 | 23 | 286 | 22.5 | 32.2 | 0.00 | 0.18 | 0.00 | 16 | 1000.3 |
| 20260503230040 | 23 | 282 | 19.3 | 32.2 | 0.00 | 0.18 | 0.00 | 16 | 1000.4 |
| 20260503224536 | 22 | 314 | 11.3 | 24.1 | 0.00 | 0.18 | 0.00 | 17 | 1000.6 |
| 20260503223034 | 23 | 321 | 17.7 | 35.4 | 0.00 | 0.18 | 0.00 | 17 | 1000.7 |
| 20260503221536 | 23 | 355 | 14.5 | 29.0 | 0.00 | 0.18 | 0.00 | 16 | 1001.0 |
| 20260503220031 | 22 | 317 | 14.5 | 30.6 | 0.00 | 0.18 | 0.00 | 16 | 1001.2 |
| 20260503214528 | 23 | 284 | 22.5 | 35.4 | 0.00 | 0.18 | 0.00 | 17 | 1001.6 |
| 20260503213027 | 22 | 319 | 17.7 | 29.0 | 0.00 | 0.18 | 0.00 | 17 | 1001.8 |
| 20260503211525 | 22 | 292 | 20.9 | 32.2 | 0.00 | 0.18 | 0.00 | 17 | 1002.0 |
| 20260503210023 | 22 | 298 | 17.7 | 33.8 | 0.00 | 0.18 | 0.00 | 17 | 1002.4 |
| 20260503204523 | 22 | 327 | 19.3 | 32.2 | 0.00 | 0.18 | 0.00 | 18 | 1002.6 |
| 20260503203020 | 22 | 313 | 14.5 | 27.4 | 0.00 | 0.18 | 0.00 | 17 | 1002.8 |
| 20260503201518 | 21 | 317 | 27.4 | 35.4 | 0.00 | 0.18 | 0.00 | 19 | 1002.8 |
| 20260503200016 | 22 | 296 | 19.3 | 29.0 | 0.00 | 0.18 | 0.00 | 20 | 1003.0 |
| 20260503194513 | 22 | 277 | 17.7 | 32.2 | 0.00 | 0.18 | 0.00 | 19 | 1003.2 |
| 20260503193012 | 21 | 288 | 22.5 | 33.8 | 0.00 | 0.18 | 0.00 | 20 | 1003.5 |
| 20260503191509 | 21 | 282 | 19.3 | 41.8 | 0.00 | 0.18 | 0.00 | 20 | 1003.7 |
| 20260503190005 | 21 | 293 | 25.7 | 37.0 | 0.00 | 0.18 | 0.00 | 22 | 1003.8 |
| 20260503184503 | 20 | 268 | 16.1 | 38.6 | 0.00 | 0.18 | 0.00 | 24 | 1004.3 |
| 20260503183100 | 20 | 321 | 16.1 | 30.6 | 0.00 | 0.18 | 0.00 | 23 | 1004.5 |
| 20260503181558 | 20 | 321 | 14.5 | 30.6 | 0.00 | 0.18 | 0.00 | 25 | 1004.9 |
| 20260503180105 | 20 | 297 | 12.9 | 22.5 | 0.00 | 0.18 | 0.00 | 27 | 1004.9 |
| 20260503174558 | 19 | 312 | 14.5 | 22.5 | 0.00 | 0.18 | 0.00 | 27 | 1005.1 |
| 20260503173051 | 18 | 286 | 17.7 | 29.0 | 0.00 | 0.18 | 0.00 | 32 | 1005.1 |
| 20260503171551 | 18 | 309 | 14.5 | 27.4 | 0.00 | 0.18 | 0.00 | 35 | 1005.1 |